TimeEDT,TemperatureF,Dew PointF,Humidity,Sea Level PressureIn,VisibilityMPH,Wind Direction,Wind SpeedMPH,Gust SpeedMPH,PrecipitationIn,Events,Conditions,WindDirDegrees,DateUTC
12:54 AM,39.9,36.0,86,30.15,10.0,South,3.5,-,N/A,,Mostly Cloudy,190,2012-10-08 04:54:00
1:54 AM,39.9,37.0,89,30.15,10.0,SSE,4.6,-,N/A,,Mostly Cloudy,150,2012-10-08 05:54:00
2:54 AM,39.9,37.0,89,30.16,10.0,South,4.6,-,N/A,,Mostly Cloudy,180,2012-10-08 06:54:00
3:54 AM,39.9,37.0,89,30.16,10.0,South,5.8,-,N/A,,Mostly Cloudy,180,2012-10-08 07:54:00
4:54 AM,41.0,37.9,89,30.17,10.0,South,4.6,-,N/A,,Mostly Cloudy,170,2012-10-08 08:54:00
5:54 AM,42.1,37.9,85,30.18,10.0,South,6.9,-,N/A,,Mostly Cloudy,170,2012-10-08 09:54:00
6:54 AM,43.0,37.9,82,30.19,10.0,South,9.2,-,0.00,Rain,Light Rain,180,2012-10-08 10:54:00
7:54 AM,43.0,39.0,86,30.21,10.0,South,9.2,-,0.00,Rain,Light Rain,190,2012-10-08 11:54:00
8:54 AM,44.1,37.9,79,30.22,10.0,SSW,9.2,-,0.00,,Mostly Cloudy,200,2012-10-08 12:54:00
9:54 AM,44.1,39.9,85,30.23,6.0,SSW,5.8,-,0.03,Rain,Light Rain,210,2012-10-08 13:54:00
10:54 AM,45.0,39.9,82,30.23,9.0,South,10.4,-,0.00,Rain,Light Rain,180,2012-10-08 14:54:00
11:14 AM,44.6,39.2,81,30.22,2.0,SSW,10.4,-,0.02,Rain,Rain,200,2012-10-08 15:14:00
11:40 AM,42.8,39.2,87,30.22,4.0,SW,4.6,-,0.07,Rain,Light Rain,220,2012-10-08 15:40:00
11:54 AM,45.0,41.0,86,30.24,9.0,SSE,4.6,-,0.09,Rain,Light Rain,160,2012-10-08 15:54:00
12:54 PM,46.9,39.9,77,30.24,10.0,SSW,9.2,-,0.00,Rain,Light Rain,210,2012-10-08 16:54:00
1:54 PM,48.0,39.0,71,30.22,10.0,SW,11.5,-,0.00,,Overcast,220,2012-10-08 17:54:00
2:54 PM,48.9,39.0,69,30.22,10.0,WSW,5.8,-,N/A,,Overcast,240,2012-10-08 18:54:00
3:54 PM,48.0,39.0,71,30.21,10.0,South,3.5,-,N/A,,Mostly Cloudy,180,2012-10-08 19:54:00
4:54 PM,48.9,39.0,69,30.21,10.0,WSW,3.5,-,N/A,,Mostly Cloudy,250,2012-10-08 20:54:00
5:54 PM,50.0,37.9,63,30.21,10.0,Calm,Calm,-,N/A,,Mostly Cloudy,0,2012-10-08 21:54:00
6:54 PM,48.0,37.9,68,30.20,10.0,ESE,3.5,-,N/A,,Mostly Cloudy,120,2012-10-08 22:54:00
7:54 PM,46.9,39.0,74,30.21,10.0,ESE,5.8,-,N/A,,Scattered Clouds,120,2012-10-08 23:54:00
8:54 PM,46.0,37.9,73,30.21,10.0,South,5.8,-,N/A,,Scattered Clouds,180,2012-10-09 00:54:00
9:54 PM,44.1,36.0,73,30.22,10.0,South,5.8,-,N/A,,Scattered Clouds,170,2012-10-09 01:54:00
10:54 PM,42.1,35.1,76,30.23,10.0,South,5.8,-,N/A,,Partly Cloudy,170,2012-10-09 02:54:00
11:54 PM,39.9,34.0,79,30.23,10.0,South,4.6,-,N/A,,Partly Cloudy,170,2012-10-09 03:54:00